Regional Weather Roundup
Issued by NWS

Home | Current Version | Previous Version | Text Only | Print | Product List | Glossary Off
Versions: 1 2 3 4 5 6 7 8 9 10 11 12 13 14 15 16 17 18 19 20 21 22 23 24 25 26 27 28 29 30 31 32 33 34 35 36 37 38 39 40 41 42 43 44 45 46 47 48 49 50

000
ASUS45 KCYS 191310
RWRWY

WYOMING REGIONAL WEATHER ROUNDUP
NATIONAL WEATHER SERVICE CHEYENNE WY
600 AM MST FRI DEC 19 2014

NOTE:  "FAIR" INDICATES FEW OR NO CLOUDS BELOW 12,000 FEET
WITH NO SIGNIFICANT WEATHER AND/OR OBSTRUCTIONS TO VISIBILITY.

WYZ001-191400-
YELLOWSTONE NATIONAL PARK

CITY           SKY/WX    TMP DP  RH WIND       PRES   REMARKS
LK YELLOWSTONE   N/A     23  20  88 VRB5      30.07R WCI  17
W YELLOWSTONE  NOT AVBL

$$
WYZ002>013-054>058-071-098>099-191400-
NORTHERN WYOMING

CITY           SKY/WX    TMP DP  RH WIND       PRES   REMARKS
JACKSON        CLOUDY    28  27  93 S5        30.09R WCI  23
CODY           FAIR      37  21  52 W8G18     29.96S WCI  31
GREYBULL       FAIR       6   3  87 W3        30.05S
WORLAND        FAIR       0  -4  83 W3        30.04S
SHERIDAN       FAIR      26  13  57 S5        29.95S WCI  20
BUFFALO        FAIR      26  12  55 NW7       29.97S WCI  18
GILLETTE       FAIR      16  10  77 S5        29.97S WCI   9
HULETT           N/A    N/A N/A N/A MISG        N/A
NEWCASTLE      FAIR      18  16  93 N6        30.02S WCI   9

$$
WYZ014>020-022>026-101>103-191400-
CENTRAL WYOMING

CITY           SKY/WX    TMP DP  RH WIND       PRES   REMARKS
BIG PINEY      CLOUDY    15  11  83 E3        30.13R
PINEDALE       CLOUDY    19  19 100 CALM      30.12R
DUBOIS         CLOUDY    27  18  69 NW12G18   30.00S WCI  16
LANDER         FOG       -5  -8  87 CALM      30.04S VSB 3/4
RIVERTON       HAZE       4  -1  80 NW5       30.06R VSB 1/4 WCI  -5
CASPER         FAIR      22  15  75 SW10      30.03F WCI  11
DOUGLAS        FAIR      15  10  80 CALM      30.03R

$$
WYZ021-027>030-104>119-191400-
SOUTHERN WYOMING

CITY           SKY/WX    TMP DP  RH WIND       PRES   REMARKS
EVANSTON       CLOUDY    22  20  92 SW10      30.15S WCI  11
KEMMERER       CLOUDY    23  21  93 SW8       30.13S WCI  14
FORT BRIDGER   CLOUDY    27  19  72 SW10      30.17S WCI  17
ROCK SPRINGS   FAIR      19  15  84 SW15      30.14R WCI   5
DIXON          CLOUDY   N/A N/A N/A S5        30.21S
RAWLINS        FAIR      20  17  88 W21       30.10R WCI   4
SARATOGA       FAIR      23  19  86 SW6       30.12R WCI  16
LARAMIE        FAIR      17  11  77 SW15      30.04F WCI   2
CHEYENNE       FAIR      21  11  65 SE8       30.04R WCI  11
TORRINGTON     FAIR     N/A N/A N/A CALM      30.04S
PINE BLUFFS    FAIR      14  10  85 W3        30.06F

$$


USA.gov is the U.S. government's official web portal to all federal, state and local government web resources and services.